Regional Weather Roundup
Issued by NWS

Home | Current Version | Previous Version | Graphics & Text | Print | Product List | Glossary On
Versions: 1 2 3 4 5 6 7 8 9 10 11 12 13 14 15 16 17 18 19 20 21 22 23 24 25 26 27 28 29 30 31 32 33 34 35 36 37 38 39 40 41 42 43 44 45 46 47 48 49 50
000
ASUS45 KABQ 302210
RWRNM
WEATHER ROUNDUP FOR NEW MEXICO
NATIONAL WEATHER SERVICE ALBUQUERQUE NM
400 PM MDT SAT AUG 30 2014

NOTE: "FAIR" MEANS FEW OR NO CLOUDS BELOW 12,000 FEET AGL WITH NO
       SIGNIFICANT WEATHER OR OBSTRUCTIONS TO VISION.

      THIS PRODUCT IS RELEASED AS TWO VERSIONS.  ONE VERSION NEAR
      THE TOP OF THE HOUR CONTAINING PRELIMINARY DATA FROM ALBUQUERQUE
      AND OTHER STATIONS.  A FINAL VERSION WITH ADDITIONAL DATA IS
      ISSUED ABOUT 10 MINUTES AFTER THE HOUR.

NMZ501-503-504-510>518-302300-
NORTHWEST PLATEAU/NORTHCENTRAL MOUNTAINS

CITY           SKY/WX    TMP DP  RH WIND       PRES   REMARKS
FARMINGTON     SUNNY     87  31  13 W7        30.05F
LOS ALAMOS     SUNNY     81  31  16 W13       30.19F
SANTA FE       SUNNY     85  36  17 SW10G20   30.13F
ANGEL FIRE     FAIR      72  33  23 NW9G24    30.27F

$$
NMZ402-403-502-505>509-302300-
WESTCENTRAL MOUNTAINS/SOUTHWEST MOUNTAINS

CITY           SKY/WX    TMP DP  RH WIND       PRES   REMARKS
GALLUP         SUNNY     87  28  12 SW10G18   30.14F
SILVER CITY    SUNNY     90  36  14 SE9G18    30.10F

$$
NMZ407-409-411-412-302300-
SOUTHERN DESERTS

CITY           SKY/WX    TMP DP  RH WIND       PRES   REMARKS
LORDSBURG      FAIR      95  39  14 SW10      29.99F
DEMING         SUNNY     94  35  12 SE7       30.00F
LAS CRUCES     SUNNY     94  36  12 S7        30.03F
HOLLOMAN AFB   PTSUNNY   93  43  17 SW12      29.97F
ALAMOGORDO     SUNNY     93  41  16 SW8       30.00F
T OR C         SUNNY     92  40  16 SE8       30.02F

$$
NMZ519>523-302300-
CENTRAL VALLEYS/CENTRAL HIGHLANDS

CITY           SKY/WX    TMP DP  RH WIND       PRES   REMARKS
ALBUQUERQUE    PTSUNNY   89  39  17 S6        30.07F
DOUBLE EAGLE   MOSUNNY   88  39  18 SW12G26   30.10F
MORIARTY ARPT  FAIR      85  34  16 SW10G16   30.15F
CLINES CORNERS MOSUNNY   80  37  21 W17G26    30.19F
BELEN          FAIR      90  42  19 SE12      30.05F
SOCORRO        FAIR      93  39  15 S10G22    30.02F

$$
NMZ524>526-539-540-302300-
SOUTHCENTRAL MOUNTAINS

CITY           SKY/WX    TMP DP  RH WIND       PRES   REMARKS
RUIDOSO        MOSUNNY   81  39  22 S5        30.22F

$$
NMZ527>531-302300-
NORTHEAST HIGHLANDS/NORTHEAST PLAINS

CITY           SKY/WX    TMP DP  RH WIND       PRES   REMARKS
LAS VEGAS      MOSUNNY   83  37  19 SW18G24   30.15F
RATON          MOSUNNY   86  32  14 W13G20    30.06F
CLAYTON        MOSUNNY   88  42  20 S18       29.99F

$$
NMZ532>537-302300-
EASTCENTRAL PLAINS

CITY           SKY/WX    TMP DP  RH WIND       PRES   REMARKS
TUCUMCARI      MOSUNNY   96  40  14 SW15      29.94F
CANNON AFB     SUNNY     92  45  19 SW10G23   30.00F
CLOVIS AIRPORT   N/A     90  45  20 S16       30.02F

$$
NMZ028-029-538-302300-
SOUTHEAST PLAINS

CITY           SKY/WX    TMP DP  RH WIND       PRES   REMARKS
ROSWELL        SUNNY     94  45  18 S10G16    29.96F
CARLSBAD       SUNNY     97  29   9 VRB5      29.95F
HOBBS          MOSUNNY   91  45  19 E8        30.01F


$$


USA.gov is the U.S. government's official web portal to all federal, state and local government web resources and services.